TimeCDT,TemperatureF,Dew PointF,Humidity,Sea Level PressureIn,VisibilityMPH,Wind Direction,Wind SpeedMPH,Gust SpeedMPH,PrecipitationIn,Events,Conditions,WindDirDegrees,DateUTC
12:15 AM,61.2,59.5,94,29.88,10.0,NE,5.8,-,N/A,,Clear,40,2013-06-12 05:15:00
12:35 AM,62.1,60.1,93,29.88,10.0,Calm,Calm,-,N/A,,Clear,0,2013-06-12 05:35:00
12:55 AM,61.0,59.5,95,29.89,10.0,NNE,3.5,-,N/A,,Clear,20,2013-06-12 05:55:00
1:15 AM,62.2,60.1,93,29.89,10.0,East,4.6,-,N/A,Rain,Light Rain,80,2013-06-12 06:15:00
1:35 AM,61.7,60.1,94,29.89,10.0,East,3.5,-,N/A,Rain,Light Rain,90,2013-06-12 06:35:00
1:55 AM,62.1,59.9,93,29.94,10.0,North,6.9,-,N/A,Rain,Light Rain,10,2013-06-12 06:55:00
2:15 AM,62.1,59.4,91,29.93,10.0,Calm,Calm,-,N/A,Rain,Light Rain,0,2013-06-12 07:15:00
2:35 AM,61.5,59.4,93,29.89,10.0,ESE,6.9,-,N/A,Rain,Light Rain,110,2013-06-12 07:35:00
2:55 AM,61.9,59.5,92,29.84,10.0,SE,12.7,-,0.01,Rain,Light Rain,140,2013-06-12 07:55:00
3:15 AM,61.7,59.7,93,29.91,7.0,NE,6.9,-,0.01,Rain,Light Rain,40,2013-06-12 08:15:00
3:35 AM,61.5,59.5,93,29.89,10.0,East,8.1,-,0.02,Rain,Light Rain,100,2013-06-12 08:35:00
3:55 AM,61.3,59.5,94,29.90,7.0,SE,3.5,-,0.02,Rain,Light Rain,130,2013-06-12 08:55:00
4:15 AM,61.3,59.9,95,29.94,7.0,Calm,Calm,-,N/A,,Light Drizzle,0,2013-06-12 09:15:00
4:35 AM,60.1,59.4,97,29.93,5.0,Calm,Calm,-,0.01,,Scattered Clouds,0,2013-06-12 09:35:00
4:55 AM,59.7,59.0,97,29.93,3.0,NNE,9.2,-,0.01,,Clear,20,2013-06-12 09:55:00
5:15 AM,59.5,59.2,99,29.91,3.0,ENE,3.5,-,N/A,,Clear,60,2013-06-12 10:15:00
5:35 AM,59.5,59.0,98,29.89,3.0,ENE,4.6,-,N/A,,Clear,60,2013-06-12 10:35:00
5:55 AM,60.1,59.0,96,29.88,7.0,ENE,6.9,-,N/A,,Clear,70,2013-06-12 10:55:00
6:15 AM,60.8,58.3,91,29.85,10.0,ESE,8.1,-,N/A,,Clear,110,2013-06-12 11:15:00
6:35 AM,61.3,57.4,87,29.89,10.0,Calm,Calm,-,N/A,,Clear,0,2013-06-12 11:35:00
6:55 AM,61.7,57.7,87,29.90,10.0,South,4.6,-,N/A,,Clear,170,2013-06-12 11:55:00
7:15 AM,62.1,57.7,86,29.91,10.0,South,3.5,-,N/A,,Scattered Clouds,190,2013-06-12 12:15:00
7:35 AM,62.1,57.7,86,29.93,10.0,Calm,Calm,-,N/A,,Scattered Clouds,0,2013-06-12 12:35:00
7:55 AM,62.6,58.1,85,29.93,10.0,ESE,3.5,-,N/A,,Clear,120,2013-06-12 12:55:00
8:15 AM,62.6,58.3,86,29.93,10.0,Calm,Calm,-,N/A,,Scattered Clouds,0,2013-06-12 13:15:00
8:35 AM,63.1,58.5,85,29.91,10.0,East,4.6,-,N/A,,Scattered Clouds,100,2013-06-12 13:35:00
8:55 AM,63.5,57.6,81,29.88,10.0,East,9.2,-,N/A,,Scattered Clouds,100,2013-06-12 13:55:00
9:15 AM,64.4,57.2,77,29.86,10.0,East,9.2,-,N/A,,Clear,90,2013-06-12 14:15:00
9:35 AM,65.1,56.5,74,29.85,10.0,East,11.5,-,N/A,,Clear,90,2013-06-12 14:35:00
9:55 AM,66.4,56.3,70,29.86,10.0,East,5.8,-,N/A,,Scattered Clouds,80,2013-06-12 14:55:00
10:15 AM,66.2,55.2,68,29.87,10.0,East,5.8,-,N/A,,Mostly Cloudy,80,2013-06-12 15:15:00
10:35 AM,66.7,54.1,64,29.87,10.0,ESE,5.8,-,N/A,,Overcast,110,2013-06-12 15:35:00
10:55 AM,67.5,55.4,65,29.86,10.0,East,5.8,-,N/A,,Mostly Cloudy,100,2013-06-12 15:55:00
11:15 AM,68.2,56.1,65,29.85,10.0,East,9.2,-,N/A,,Scattered Clouds,90,2013-06-12 16:15:00
11:56 AM,69.8,55.4,60,29.85,10.0,East,10.4,-,N/A,,Scattered Clouds,90,2013-06-12 16:56:00
12:15 PM,69.4,56.8,64,29.85,10.0,ENE,8.1,-,N/A,,Overcast,60,2013-06-12 17:15:00
12:35 PM,69.4,56.1,62,29.85,10.0,ENE,8.1,-,N/A,,Mostly Cloudy,70,2013-06-12 17:35:00
12:55 PM,70.0,56.7,63,29.87,7.0,SSE,5.8,-,N/A,,Scattered Clouds,150,2013-06-12 17:55:00
1:15 PM,70.3,56.5,61,29.88,10.0,SE,4.6,-,N/A,,Clear,130,2013-06-12 18:15:00
1:35 PM,70.3,55.9,60,29.87,10.0,ESE,5.8,-,N/A,,Scattered Clouds,110,2013-06-12 18:35:00
1:55 PM,70.7,55.9,59,29.87,10.0,SE,6.9,-,N/A,,Overcast,130,2013-06-12 18:55:00
2:15 PM,71.1,56.8,61,29.86,10.0,ESE,6.9,-,N/A,,Overcast,110,2013-06-12 19:15:00
2:35 PM,70.9,56.1,59,29.86,10.0,ESE,8.1,-,N/A,,Mostly Cloudy,110,2013-06-12 19:35:00
2:55 PM,72.0,56.8,59,29.84,10.0,East,11.5,-,N/A,,Mostly Cloudy,80,2013-06-12 19:55:00
3:15 PM,73.4,56.5,55,29.83,10.0,East,10.4,-,N/A,,Mostly Cloudy,100,2013-06-12 20:15:00
3:35 PM,72.0,55.9,57,29.81,10.0,East,10.4,-,N/A,,Overcast,90,2013-06-12 20:35:00
3:55 PM,71.4,55.9,58,29.81,10.0,East,5.8,-,N/A,Thunderstorm,Thunderstorm,80,2013-06-12 20:55:00
4:15 PM,68.4,58.6,71,29.80,10.0,NE,10.4,-,N/A,Thunderstorm,Overcast,50,2013-06-12 21:15:00
4:35 PM,68.2,57.6,69,29.79,10.0,ENE,8.1,-,N/A,,Overcast,60,2013-06-12 21:35:00
4:55 PM,67.8,57.7,70,29.79,10.0,ENE,5.8,-,N/A,,Overcast,70,2013-06-12 21:55:00
5:15 PM,68.4,57.2,67,29.80,10.0,NNE,9.2,-,N/A,,Overcast,20,2013-06-12 22:15:00
5:35 PM,66.2,59.0,78,29.76,10.0,NE,8.1,-,0.01,Rain-Thunderstorm,Light Thunderstorms and Rain,40,2013-06-12 22:35:00
5:55 PM,66.2,58.6,77,29.74,10.0,NE,10.4,-,0.01,,Mostly Cloudy,40,2013-06-12 22:55:00
6:15 PM,64.4,56.7,76,29.76,10.0,North,11.5,-,N/A,,Mostly Cloudy,10,2013-06-12 23:15:00
6:35 PM,63.5,53.6,70,29.76,10.0,NE,11.5,-,N/A,,Overcast,40,2013-06-12 23:35:00
6:55 PM,63.0,54.3,73,29.75,10.0,East,6.9,-,N/A,,Light Drizzle,80,2013-06-12 23:55:00
7:15 PM,63.5,53.6,70,29.77,10.0,ENE,5.8,-,N/A,,Mostly Cloudy,60,2013-06-13 00:15:00
7:35 PM,63.9,54.1,71,29.78,10.0,NE,5.8,-,N/A,,Overcast,50,2013-06-13 00:35:00
7:55 PM,63.9,54.0,70,29.76,10.0,NE,4.6,-,N/A,,Overcast,50,2013-06-13 00:55:00
8:15 PM,62.2,55.4,78,29.78,10.0,NNE,5.8,-,N/A,,Mostly Cloudy,30,2013-06-13 01:15:00
8:35 PM,62.4,55.8,79,29.80,10.0,North,4.6,-,N/A,,Overcast,350,2013-06-13 01:35:00
8:55 PM,61.0,55.6,82,29.81,10.0,North,8.1,-,N/A,,Overcast,360,2013-06-13 01:55:00
9:15 PM,60.1,55.0,83,29.82,10.0,NNE,6.9,-,N/A,,Mostly Cloudy,30,2013-06-13 02:15:00
9:35 PM,60.1,55.4,85,29.83,10.0,North,5.8,-,N/A,,Clear,360,2013-06-13 02:35:00
10:19 PM,59.0,55.4,88,29.82,10.0,North,5.8,-,N/A,,Overcast,360,2013-06-13 03:19:00
10:35 PM,59.2,56.3,90,29.82,10.0,Calm,Calm,-,N/A,,Mostly Cloudy,0,2013-06-13 03:35:00
10:55 PM,58.8,56.3,91,29.81,10.0,North,3.5,-,N/A,,Scattered Clouds,360,2013-06-13 03:55:00
11:15 PM,58.6,56.3,92,29.81,10.0,NNW,3.5,-,N/A,,Clear,330,2013-06-13 04:15:00
11:35 PM,58.1,56.3,94,29.82,10.0,North,4.6,-,N/A,,Clear,350,2013-06-13 04:35:00
11:55 PM,58.5,56.5,93,29.82,10.0,North,4.6,-,N/A,,Clear,350,2013-06-13 04:55:00